EN

Hourly Weather Pucioasa

Today, 29 October, Thursday

Time Temperature Precipitation Wind Pressure Humidity
00:00 +11°C° 0 mm 1 mps 726 mmHg 88%
01:00 +11°C° 0 mm 1 mps 726 mmHg 86%
02:00 +11°C° 0 mm 1 mps 726 mmHg 85%
03:00 +11°C° 0 mm 1 mps 726 mmHg 85%
04:00 +11°C° 0 mm 1 mps 726 mmHg 84%
05:00 +9°C° 0 mm 2 mps 725 mmHg 83%
06:00 +10°C° 0 mm 2 mps 725 mmHg 81%
07:00 +10°C° 0 mm 2 mps 726 mmHg 79%
08:00 +10°C° 0 mm 2 mps 726 mmHg 76%
09:00 +13°C° 0 mm 1 mps 726 mmHg 69%
10:00 +15°C° 0 mm 1 mps 726 mmHg 61%
11:00 +18°C° 0 mm 1 mps 726 mmHg 54%
12:00 +18°C° 0 mm 1 mps 726 mmHg 53%
13:00 +18°C° 0 mm 2 mps 726 mmHg 52%
14:00 +18°C° 0 mm 2 mps 726 mmHg 53%
15:00 +16°C° 0 mm 2 mps 726 mmHg 59%
16:00 +15°C° 0 mm 1 mps 725 mmHg 65%
17:00 +14°C° 0 mm 1 mps 725 mmHg 71%
18:00 +13°C° 0 mm 1 mps 725 mmHg 74%
19:00 +13°C° 0 mm 2 mps 725 mmHg 77%
20:00 +12°C° 0 mm 2 mps 725 mmHg 80%
21:00 +12°C° 0 mm 2 mps 725 mmHg 81%
22:00 +11°C° 0 mm 1 mps 726 mmHg 81%
23:00 +11°C° 0 mm 1 mps 726 mmHg 82%

Tomorrow, 30 October, Friday

Time Temperature Precipitation Wind Pressure Humidity
00:00 +11°C° 0 mm 1 mps 725 mmHg 81%
01:00 +11°C° 0 mm 1 mps 725 mmHg 81%
02:00 +11°C° 0 mm 1 mps 725 mmHg 81%
03:00 +11°C° 0 mm 1 mps 725 mmHg 80%
04:00 +11°C° 0 mm 1 mps 725 mmHg 80%
05:00 +11°C° 0 mm 1 mps 725 mmHg 80%
06:00 +11°C° 0.1 mm 1 mps 725 mmHg 80%
07:00 +12°C° 0.1 mm 1 mps 725 mmHg 80%
08:00 +12°C° 0.1 mm 2 mps 726 mmHg 80%
09:00 +12°C° 0.5 mm 2 mps 726 mmHg 79%
10:00 +11°C° 0.5 mm 3 mps 726 mmHg 77%
11:00 +11°C° 0.5 mm 3 mps 726 mmHg 76%
12:00 +11°C° 0.2 mm 3 mps 726 mmHg 73%
13:00 +11°C° 0.2 mm 3 mps 726 mmHg 71%
14:00 +11°C° 0.2 mm 3 mps 726 mmHg 69%
15:00 +12°C° 0 mm 2 mps 726 mmHg 69%
16:00 +10°C° 0 mm 2 mps 727 mmHg 70%
17:00 +11°C° 0 mm 1 mps 727 mmHg 71%
18:00 +9°C° 0 mm 2 mps 727 mmHg 73%
19:00 +8°C° 0 mm 2 mps 728 mmHg 76%
20:00 +7°C° 0 mm 2 mps 728 mmHg 78%
21:00 +7°C° 0 mm 2 mps 728 mmHg 77%
22:00 +7°C° 0 mm 2 mps 728 mmHg 76%
23:00 +6°C° 0 mm 2 mps 728 mmHg 75%

Day after tomorrow, 31 October, Saturday

Time Temperature Precipitation Wind Pressure Humidity
00:00 +6°C° 0 mm 2 mps 728 mmHg 75%
01:00 +6°C° 0 mm 2 mps 728 mmHg 74%
02:00 +7°C° 0 mm 1 mps 728 mmHg 73%
03:00 +7°C° 0 mm 1 mps 727 mmHg 73%
04:00 +7°C° 0 mm 1 mps 727 mmHg 73%
05:00 +7°C° 0 mm 1 mps 727 mmHg 73%
06:00 +8°C° 0 mm 1 mps 726 mmHg 73%
07:00 +8°C° 0 mm 1 mps 726 mmHg 74%
08:00 +8°C° 0 mm 1 mps 725 mmHg 74%
09:00 +10°C° 0.1 mm 1 mps 725 mmHg 71%
10:00 +12°C° 0.1 mm 2 mps 725 mmHg 69%
11:00 +13°C° 0.1 mm 2 mps 725 mmHg 66%
12:00 +14°C° 0.4 mm 2 mps 725 mmHg 68%
13:00 +14°C° 0.4 mm 2 mps 724 mmHg 70%
14:00 +14°C° 0.4 mm 2 mps 724 mmHg 71%
15:00 +13°C° 0.4 mm 2 mps 724 mmHg 74%
16:00 +12°C° 0.4 mm 2 mps 725 mmHg 77%
17:00 +10°C° 0.4 mm 3 mps 725 mmHg 80%
18:00 +9°C° 0.1 mm 2 mps 726 mmHg 82%
19:00 +8°C° 0.1 mm 2 mps 726 mmHg 83%
20:00 +8°C° 0.1 mm 1 mps 727 mmHg 84%
21:00 +8°C° 0 mm 1 mps 727 mmHg 84%
22:00 +7°C° 0 mm 1 mps 728 mmHg 84%
23:00 +7°C° 0 mm 1 mps 728 mmHg 84%

1 November, Sunday

Time Temperature Precipitation Wind Pressure Humidity
00:00 +7°C° 0 mm 1 mps 728 mmHg 84%
01:00 +5°C° 0 mm 2 mps 728 mmHg 85%
02:00 +5°C° 0 mm 2 mps 728 mmHg 86%
03:00 +5°C° 0 mm 2 mps 728 mmHg 86%
04:00 +5°C° 0 mm 2 mps 728 mmHg 85%
05:00 +5°C° 0 mm 2 mps 728 mmHg 85%
06:00 +5°C° 0 mm 2 mps 728 mmHg 83%
07:00 +5°C° 0 mm 2 mps 728 mmHg 80%
08:00 +5°C° 0 mm 2 mps 728 mmHg 78%
09:00 +7°C° 0 mm 2 mps 728 mmHg 69%
10:00 +9°C° 0 mm 2 mps 728 mmHg 59%
11:00 +12°C° 0 mm 2 mps 729 mmHg 50%
12:00 +13°C° 0 mm 2 mps 729 mmHg 48%
13:00 +14°C° 0 mm 2 mps 729 mmHg 46%
14:00 +14°C° 0 mm 1 mps 728 mmHg 44%
15:00 +13°C° 0 mm 1 mps 728 mmHg 49%
16:00 +12°C° 0 mm 1 mps 728 mmHg 55%
17:00 +11°C° 0 mm 1 mps 728 mmHg 60%
18:00 +10°C° 0 mm 1 mps 728 mmHg 62%
19:00 +8°C° 0 mm 2 mps 728 mmHg 65%
20:00 +7°C° 0 mm 2 mps 728 mmHg 67%
21:00 +7°C° 0 mm 2 mps 729 mmHg 66%
22:00 +7°C° 0 mm 2 mps 729 mmHg 65%
23:00 +7°C° 0 mm 1 mps 729 mmHg 64%

2 November, Monday

Time Temperature Precipitation Wind Pressure Humidity
00:00 +7°C° 0 mm 1 mps 729 mmHg 63%
01:00 +7°C° 0 mm 1 mps 729 mmHg 62%
02:00 +7°C° 0 mm 1 mps 729 mmHg 61%
03:00 +7°C° 0 mm 1 mps 729 mmHg 61%
04:00 +6°C° 0 mm 1 mps 729 mmHg 61%
05:00 +6°C° 0 mm 1 mps 729 mmHg 61%
06:00 +7°C° 0 mm 1 mps 729 mmHg 59%
07:00 +7°C° 0 mm 1 mps 729 mmHg 58%
08:00 +7°C° 0 mm 1 mps 729 mmHg 57%
09:00 +9°C° 0 mm 1 mps 730 mmHg 51%
10:00 +12°C° 0 mm 1 mps 730 mmHg 45%
11:00 +14°C° 0 mm 1 mps 730 mmHg 38%
12:00 +14°C° 0 mm 1 mps 730 mmHg 37%
13:00 +15°C° 0 mm 1 mps 730 mmHg 36%
14:00 +16°C° 0 mm 1 mps 729 mmHg 34%
15:00 +14°C° 0 mm 1 mps 729 mmHg 40%
16:00 +13°C° 0 mm 1 mps 729 mmHg 47%
17:00 +12°C° 0 mm 1 mps 729 mmHg 53%
18:00 +11°C° 0 mm 1 mps 729 mmHg 56%
19:00 +11°C° 0 mm 1 mps 729 mmHg 60%
20:00 +11°C° 0 mm 1 mps 729 mmHg 64%
21:00 +11°C° 0 mm 1 mps 729 mmHg 66%
22:00 +11°C° 0 mm 1 mps 729 mmHg 69%
23:00 +11°C° 0 mm 1 mps 729 mmHg 71%

3 November, Tuesday

Time Temperature Precipitation Wind Pressure Humidity
00:00 +11°C° 0 mm 1 mps 729 mmHg 71%
01:00 +12°C° 0 mm 1 mps 729 mmHg 70%
02:00 +12°C° 0 mm 1 mps 729 mmHg 70%
03:00 +12°C° 0 mm 1 mps 729 mmHg 72%
04:00 +12°C° 0 mm 1 mps 729 mmHg 73%
05:00 +12°C° 0 mm 1 mps 729 mmHg 75%
06:00 +12°C° 0.1 mm 1 mps 729 mmHg 75%
07:00 +12°C° 0.1 mm 1 mps 729 mmHg 76%
08:00 +12°C° 0.1 mm 1 mps 729 mmHg 76%
09:00 +13°C° 0 mm 1 mps 729 mmHg 72%
10:00 +14°C° 0 mm 1 mps 730 mmHg 67%
11:00 +15°C° 0 mm 1 mps 730 mmHg 63%
12:00 +16°C° 0 mm 1 mps 730 mmHg 62%
13:00 +16°C° 0 mm 1 mps 730 mmHg 61%
14:00 +16°C° 0 mm 1 mps 730 mmHg 60%
15:00 +15°C° 0 mm 1 mps 729 mmHg 64%
16:00 +14°C° 0 mm 1 mps 729 mmHg 68%
17:00 +13°C° 0 mm 1 mps 729 mmHg 72%
18:00 +12°C° 0 mm 1 mps 729 mmHg 76%
19:00 +12°C° 0 mm 1 mps 730 mmHg 79%
20:00 +11°C° 0 mm 1 mps 730 mmHg 83%
21:00 +11°C° 0 mm 1 mps 730 mmHg 85%
22:00 +10°C° 0 mm 1 mps 730 mmHg 87%
23:00 +10°C° 0 mm 1 mps 731 mmHg 89%
Show more